EW2889 Weather Reports


Display with metric or nautical units.
time (UTC)temp
F
wind
direction
speed
MPH
gust
MPH
rain 1hr
in
rain 24hr
in
rain mn
in
humidity
%
barometer
mb
20240420134519 60 275 0.0 0.0 0.00 0.07 0.00 96 1015.9
20240420133023 59 263 0.0 0.0 0.00 0.07 0.00 96 1015.5
20240420131517 59 86 0.0 0.0 0.00 0.07 0.00 97 1015.7
20240420130014 58 89 0.0 0.0 0.00 0.07 0.00 97 1015.8
20240420124522 57 89 0.0 0.0 0.00 0.07 0.00 97 1016.1
20240420123031 57 89 0.0 0.0 0.00 0.07 0.00 97 1016.1
20240420121506 57 89 0.0 0.0 0.00 0.07 0.00 97 1016.0
20240420120012 57 89 0.0 0.0 0.00 0.07 0.00 97 1015.8
20240420114502 56 87 0.0 0.0 0.00 0.07 0.00 97 1015.5
20240420113010 56 86 0.0 0.0 0.00 0.07 0.00 97 1015.6
20240420111602 0 0.0 0.0 0.00 0.07 0.00 1015.4
20240420110057 0 0.0 0.0 0.00 0.07 0.00 1015.4
20240420104552 0 0.0 0.0 0.00 0.07 0.00 1015.5
20240420103105 0 0.0 0.0 0.00 0.07 0.00 1015.8
20240420101544 0 0.0 0.0 0.00 0.07 0.00 1015.8
20240420100042 54 89 0.0 0.0 0.00 0.07 0.00 100 1015.5
20240420094547 55 90 0.0 0.0 0.00 0.07 0.00 96 1015.4
20240420093039 55 90 0.0 0.0 0.00 0.07 0.00 96 1015.4
20240420091548 55 84 0.0 0.0 0.00 0.07 0.00 96 1015.2
20240420090038 55 84 0.0 0.0 0.00 0.07 0.00 96 1014.7
20240420084555 55 88 0.0 0.0 0.00 0.07 0.00 96 1014.9
20240420083035 55 86 0.0 0.0 0.00 0.07 0.00 95 1015.2
20240420081533 55 99 0.0 0.0 0.00 0.07 0.00 95 1015.1
20240420080032 55 98 0.0 0.0 0.00 0.07 0.00 95 1015.4
20240420074542 54 98 0.0 0.0 0.00 0.07 0.00 95 1015.3
20240420073033 54 99 0.0 0.0 0.00 0.07 0.00 95 1015.4
20240420071529 54 99 0.0 0.0 0.00 0.07 0.00 95 1015.2
20240420070027 54 98 0.0 0.0 0.00 0.07 0.00 95 1015.4
20240420064526 54 98 0.0 0.0 0.00 0.07 0.00 95 1015.5
20240420063042 54 144 0.0 0.0 0.00 0.07 0.00 96 1015.8
20240420061523 54 144 0.0 0.0 0.00 0.07 0.00 96 1015.9
20240420060024 54 122 0.0 0.0 0.00 0.07 0.00 96 1016.0
20240420054521 54 122 0.0 0.0 0.00 0.07 0.00 96 1016.2
20240420053019 54 122 0.0 0.0 0.00 0.07 0.00 96 1016.3
20240420051517 54 122 0.0 0.0 0.00 0.07 0.00 96 1016.3
20240420050015 53 134 0.0 0.0 0.00 0.07 0.00 96 1016.5
20240420044514 53 134 0.0 0.0 0.00 0.07 0.00 96 1016.7
20240420043013 53 131 0.0 0.0 0.00 0.07 0.00 96 1016.8
20240420041514 53 116 0.0 0.0 0.00 0.07 0.00 96 1016.9
20240420040008 53 107 0.0 0.0 0.00 0.07 0.00 95 1016.7
20240420034509 53 135 0.0 0.0 0.00 0.07 0.07 95 1016.6
20240420033007 53 144 0.0 0.0 0.00 0.07 0.07 95 1016.5
20240420031506 53 129 0.0 4.0 0.00 0.07 0.07 95 1016.6
20240420030005 53 117 0.0 0.0 0.00 0.07 0.07 95 1016.9
20240420024507 53 131 0.0 0.0 0.02 0.07 0.07 95 1017.3
20240420023004 53 86 0.0 0.0 0.07 0.07 0.07 94 1017.2
20240420021503 53 141 0.0 0.0 0.07 0.07 0.07 94 1017.2
20240420020005 53 84 0.0 0.0 0.07 0.07 0.07 93 1017.5
20240420014502 53 101 0.0 2.0 0.05 0.05 0.05 93 1017.4
20240420013001 53 139 0.0 4.0 0.00 0.00 0.00 92 1017.1
20240420011502 53 119 0.0 6.0 0.00 0.00 0.00 91 1017.5
20240420010100 53 103 0.0 2.0 0.00 0.00 0.00 91 1017.4
20240420004559 53 86 0.0 2.0 0.00 0.00 0.00 91 1017.6
20240420003111 53 118 0.0 3.0 0.00 0.00 0.00 91 1017.7
20240420001558 53 80 0.0 5.0 0.00 0.00 0.00 90 1017.4
20240420000107 53 80 0.0 4.0 0.00 0.00 0.00 90 1017.3
20240419234603 53 81 0.0 6.0 0.00 0.00 0.00 89 1017.2
20240419233056 54 51 0.0 4.0 0.00 0.00 0.00 88 1017.1
20240419231556 54 91 0.0 7.0 0.00 0.00 0.00 88 1017.1
20240419230107 54 86 0.0 10.0 0.00 0.00 0.00 87 1017.0
20240419224553 55 156 0.0 2.0 0.00 0.00 0.00 86 1016.9
20240419223054 55 69 0.0 4.0 0.00 0.00 0.00 86 1016.8
20240419221552 56 44 0.0 6.0 0.00 0.00 0.00 84 1016.9
20240419220051 57 15 0.0 6.0 0.00 0.00 0.00 81 1016.9
20240419214550 58 89 1.0 7.0 0.00 0.00 0.00 79 1017.1
20240419213049 59 63 1.0 8.0 0.00 0.00 0.00 78 1016.8
20240419211549 60 98 0.0 2.0 0.00 0.00 0.00 78 1016.7
20240419210048 61 65 0.0 0.0 0.00 0.00 0.00 74 1016.7
20240419204548 61 47 0.0 5.0 0.00 0.00 0.00 75 1016.8
20240419203053 61 44 0.0 5.0 0.00 0.00 0.00 75 1016.7
20240419201547 61 129 0.0 4.0 0.00 0.00 0.00 74 1016.8
20240419200044 62 98 1.0 9.0 0.00 0.00 0.00 74 1016.7
20240419194548 61 41 0.0 6.0 0.00 0.00 0.00 75 1016.8
20240419193042 62 350 0.0 6.0 0.00 0.00 0.00 73 1016.9
20240419191542 62 78 0.0 5.0 0.00 0.00 0.00 74 1016.9
20240419190037 61 65 0.0 5.0 0.00 0.00 0.00 76 1017.2
20240419184538 61 61 1.0 10.0 0.00 0.00 0.00 75 1017.6
20240419183047 61 138 0.0 6.0 0.00 0.00 0.00 75 1017.9
20240419181529 60 124 0.0 7.0 0.00 0.00 0.00 77 1017.9
20240419180025 59 82 0.0 6.0 0.00 0.00 0.00 80 1018.2
20240419174526 57 82 0.0 6.0 0.00 0.00 0.00 81 1018.2
20240419173018 57 89 0.0 5.0 0.00 0.00 0.00 83 1018.5
20240419171523 56 65 0.0 2.0 0.00 0.00 0.00 84 1018.7
20240419170016 56 98 0.0 1.0 0.00 0.00 0.00 84 1018.8
20240419164515 56 75 0.0 0.0 0.00 0.00 0.00 84 1019.1
20240419163013 56 60 0.0 1.0 0.00 0.00 0.00 84 1019.2
20240419161514 56 104 0.0 1.0 0.00 0.00 0.00 84 1019.4
20240419160012 56 110 0.0 1.0 0.00 0.00 0.00 85 1019.5
20240419154508 55 96 0.0 6.0 0.00 0.00 0.00 86 1019.6
20240419153007 55 128 0.0 1.0 0.00 0.00 0.00 87 1019.6
20240419151505 54 3 0.0 0.0 0.00 0.00 0.00 88 1019.7
20240419150010 53 356 0.0 2.0 0.00 0.00 0.00 89 1020.0
20240419144501 53 77 0.0 1.0 0.00 0.00 0.00 89 1020.1
20240419143100 53 78 0.0 2.0 0.00 0.00 0.00 90 1020.2
20240419141605 53 46 0.0 6.0 0.00 0.00 0.00 90 1020.3
20240419140052 52 13 0.0 6.0 0.00 0.00 0.00 90 1020.1